Stündliche Wetter Kytlym

Heute, 18 Mai, Dienstag

Zeit Temperatur Niederschläge Wind Luftdruck Luftfeuchtigkeit
00:00 +15°C° 0 mm 2 m/S 725 mmHg 77%
01:00 +14°C° 0 mm 2 m/S 725 mmHg 83%
02:00 +14°C° 0 mm 1 m/S 725 mmHg 87%
03:00 +13°C° 0 mm 1 m/S 726 mmHg 90%
04:00 +13°C° 0 mm 1 m/S 726 mmHg 93%
05:00 +13°C° 0 mm 1 m/S 726 mmHg 90%
06:00 +13°C° 0 mm 2 m/S 727 mmHg 87%
07:00 +14°C° 0 mm 2 m/S 727 mmHg 84%
08:00 +13°C° 0.1 mm 2 m/S 728 mmHg 84%
09:00 +12°C° 0.1 mm 2 m/S 728 mmHg 84%
10:00 +12°C° 0.1 mm 2 m/S 729 mmHg 84%
11:00 +12°C° 0 mm 2 m/S 729 mmHg 79%
12:00 +13°C° 0 mm 2 m/S 730 mmHg 75%
13:00 +14°C° 0 mm 2 m/S 730 mmHg 71%
14:00 +14°C° 0 mm 2 m/S 730 mmHg 67%
15:00 +15°C° 0 mm 2 m/S 731 mmHg 63%
16:00 +16°C° 0 mm 2 m/S 731 mmHg 58%
17:00 +16°C° 0 mm 2 m/S 731 mmHg 59%
18:00 +15°C° 0 mm 2 m/S 731 mmHg 59%
19:00 +15°C° 0 mm 2 m/S 731 mmHg 59%
20:00 +13°C° 0 mm 1 m/S 732 mmHg 66%
21:00 +11°C° 0 mm 1 m/S 732 mmHg 73%
22:00 +10°C° 0 mm 1 m/S 732 mmHg 80%
23:00 +9°C° 0 mm 1 m/S 732 mmHg 81%

Morgen, 19 Mai, Mittwoch

Zeit Temperatur Niederschläge Wind Luftdruck Luftfeuchtigkeit
00:00 +9°C° 0 mm 1 m/S 733 mmHg 82%
01:00 +9°C° 0 mm 1 m/S 733 mmHg 83%
02:00 +8°C° 0 mm 0 m/S 733 mmHg 84%
03:00 +7°C° 0 mm 0 m/S 733 mmHg 84%
04:00 +7°C° 0 mm 0 m/S 733 mmHg 85%
05:00 +9°C° 0 mm 0 m/S 733 mmHg 75%
06:00 +11°C° 0 mm 0 m/S 734 mmHg 66%
07:00 +13°C° 0 mm 0 m/S 734 mmHg 57%
08:00 +15°C° 0 mm 0 m/S 734 mmHg 52%
09:00 +17°C° 0 mm 0 m/S 734 mmHg 47%
10:00 +18°C° 0 mm 0 m/S 734 mmHg 42%
11:00 +19°C° 0 mm 0 m/S 734 mmHg 39%
12:00 +22°C° 0 mm 1 m/S 734 mmHg 36%
13:00 +23°C° 0 mm 1 m/S 733 mmHg 34%
14:00 +23°C° 0 mm 1 m/S 733 mmHg 33%
15:00 +23°C° 0 mm 1 m/S 733 mmHg 33%
16:00 +24°C° 0 mm 1 m/S 733 mmHg 32%
17:00 +22°C° 0 mm 1 m/S 732 mmHg 37%
18:00 +21°C° 0 mm 1 m/S 732 mmHg 42%
19:00 +20°C° 0 mm 1 m/S 732 mmHg 47%
20:00 +19°C° 0 mm 1 m/S 732 mmHg 51%
21:00 +16°C° 0 mm 1 m/S 732 mmHg 56%
22:00 +14°C° 0 mm 1 m/S 732 mmHg 61%
23:00 +14°C° 0 mm 1 m/S 732 mmHg 63%

übermorgen, 20 Mai, Donnerstag

Zeit Temperatur Niederschläge Wind Luftdruck Luftfeuchtigkeit
00:00 +13°C° 0 mm 1 m/S 732 mmHg 64%
01:00 +13°C° 0 mm 1 m/S 732 mmHg 65%
02:00 +13°C° 0 mm 1 m/S 732 mmHg 66%
03:00 +12°C° 0 mm 1 m/S 732 mmHg 67%
04:00 +12°C° 0 mm 1 m/S 732 mmHg 68%
05:00 +14°C° 0 mm 1 m/S 732 mmHg 61%
06:00 +16°C° 0 mm 2 m/S 732 mmHg 54%
07:00 +19°C° 0 mm 2 m/S 732 mmHg 48%
08:00 +20°C° 0 mm 2 m/S 732 mmHg 43%
09:00 +23°C° 0 mm 2 m/S 732 mmHg 39%
10:00 +24°C° 0 mm 3 m/S 732 mmHg 35%
11:00 +25°C° 0 mm 2 m/S 731 mmHg 32%
12:00 +26°C° 0 mm 2 m/S 731 mmHg 30%
13:00 +27°C° 0 mm 2 m/S 731 mmHg 28%
14:00 +27°C° 0 mm 2 m/S 731 mmHg 27%
15:00 +27°C° 0 mm 2 m/S 731 mmHg 27%
16:00 +27°C° 0 mm 2 m/S 731 mmHg 26%
17:00 +26°C° 0 mm 2 m/S 730 mmHg 31%
18:00 +25°C° 0 mm 1 m/S 730 mmHg 35%
19:00 +23°C° 0 mm 1 m/S 730 mmHg 40%
20:00 +22°C° 0 mm 1 m/S 730 mmHg 44%
21:00 +20°C° 0 mm 1 m/S 730 mmHg 48%
22:00 +18°C° 0 mm 1 m/S 730 mmHg 52%
23:00 +16°C° 0 mm 1 m/S 730 mmHg 53%

21 Mai, Freitag

Zeit Temperatur Niederschläge Wind Luftdruck Luftfeuchtigkeit
00:00 +16°C° 0 mm 1 m/S 730 mmHg 54%
01:00 +15°C° 0 mm 1 m/S 730 mmHg 55%
02:00 +15°C° 0 mm 1 m/S 730 mmHg 57%
03:00 +15°C° 0 mm 1 m/S 730 mmHg 58%
04:00 +14°C° 0 mm 1 m/S 730 mmHg 59%
05:00 +18°C° 0 mm 1 m/S 730 mmHg 53%
06:00 +20°C° 0 mm 1 m/S 730 mmHg 48%
07:00 +20°C° 0 mm 0 m/S 730 mmHg 42%
08:00 +24°C° 0 mm 1 m/S 730 mmHg 37%
09:00 +25°C° 0 mm 1 m/S 730 mmHg 33%
10:00 +26°C° 0 mm 2 m/S 730 mmHg 28%
11:00 +27°C° 0 mm 2 m/S 730 mmHg 27%
12:00 +28°C° 0 mm 2 m/S 729 mmHg 25%
13:00 +29°C° 0 mm 2 m/S 729 mmHg 23%
14:00 +29°C° 0 mm 3 m/S 729 mmHg 23%
15:00 +29°C° 0 mm 3 m/S 729 mmHg 23%
16:00 +29°C° 0 mm 3 m/S 728 mmHg 23%
17:00 +27°C° 0 mm 3 m/S 728 mmHg 27%
18:00 +26°C° 0 mm 3 m/S 728 mmHg 32%
19:00 +25°C° 0 mm 3 m/S 728 mmHg 36%
20:00 +21°C° 0 mm 2 m/S 728 mmHg 42%
21:00 +19°C° 0 mm 2 m/S 728 mmHg 47%
22:00 +18°C° 0 mm 1 m/S 728 mmHg 53%
23:00 +17°C° 0 mm 2 m/S 728 mmHg 56%

22 Mai, Samstag

Zeit Temperatur Niederschläge Wind Luftdruck Luftfeuchtigkeit
00:00 +16°C° 0 mm 2 m/S 728 mmHg 60%
01:00 +15°C° 0 mm 2 m/S 727 mmHg 63%
02:00 +15°C° 0 mm 2 m/S 728 mmHg 68%
03:00 +15°C° 0 mm 1 m/S 728 mmHg 73%
04:00 +15°C° 0 mm 1 m/S 728 mmHg 78%
05:00 +16°C° 0 mm 2 m/S 728 mmHg 73%
06:00 +18°C° 0 mm 3 m/S 728 mmHg 68%
07:00 +19°C° 0 mm 3 m/S 728 mmHg 63%
08:00 +20°C° 0 mm 4 m/S 728 mmHg 58%
09:00 +21°C° 0 mm 5 m/S 728 mmHg 52%
10:00 +22°C° 0 mm 6 m/S 728 mmHg 46%
11:00 +22°C° 0 mm 6 m/S 728 mmHg 45%
12:00 +22°C° 0 mm 5 m/S 728 mmHg 44%
13:00 +22°C° 0 mm 5 m/S 728 mmHg 43%
14:00 +22°C° 0 mm 6 m/S 728 mmHg 41%
15:00 +22°C° 0 mm 6 m/S 728 mmHg 38%
16:00 +23°C° 0 mm 6 m/S 728 mmHg 36%
17:00 +21°C° 0 mm 5 m/S 728 mmHg 41%
18:00 +20°C° 0 mm 4 m/S 728 mmHg 46%
19:00 +19°C° 0 mm 3 m/S 728 mmHg 50%
20:00 +18°C° 0 mm 3 m/S 728 mmHg 53%
21:00 +18°C° 0 mm 2 m/S 728 mmHg 57%
22:00 +17°C° 0 mm 2 m/S 728 mmHg 60%
23:00 +16°C° 0 mm 2 m/S 728 mmHg 65%

23 Mai, Sonntag

Zeit Temperatur Niederschläge Wind Luftdruck Luftfeuchtigkeit
00:00 +15°C° 0 mm 2 m/S 728 mmHg 70%
01:00 +14°C° 0 mm 2 m/S 728 mmHg 76%
02:00 +14°C° 1.2 mm 2 m/S 728 mmHg 82%
03:00 +13°C° 1.2 mm 2 m/S 729 mmHg 88%
04:00 +13°C° 1.2 mm 1 m/S 729 mmHg 93%
05:00 +13°C° 0.3 mm 1 m/S 729 mmHg 90%
06:00 +14°C° 0.3 mm 1 m/S 729 mmHg 87%
07:00 +14°C° 0.3 mm 1 m/S 729 mmHg 83%
08:00 +16°C° 0 mm 1 m/S 730 mmHg 71%
09:00 +19°C° 0 mm 1 m/S 730 mmHg 59%
10:00 +20°C° 0 mm 2 m/S 730 mmHg 48%
11:00 +20°C° 0 mm 2 m/S 731 mmHg 42%
12:00 +21°C° 0 mm 2 m/S 731 mmHg 37%
13:00 +22°C° 0 mm 3 m/S 731 mmHg 32%
14:00 +23°C° 0 mm 2 m/S 731 mmHg 31%
15:00 +24°C° 0 mm 2 m/S 731 mmHg 31%
16:00 +24°C° 0 mm 2 m/S 731 mmHg 30%
17:00 +23°C° 0 mm 2 m/S 731 mmHg 35%
18:00 +22°C° 0 mm 1 m/S 731 mmHg 39%
19:00 +21°C° 0 mm 1 m/S 731 mmHg 44%
20:00 +19°C° 0 mm 1 m/S 731 mmHg 49%
21:00 +16°C° 0 mm 1 m/S 731 mmHg 55%
22:00 +15°C° 0 mm 1 m/S 731 mmHg 60%
23:00 +14°C° 0 mm 1 m/S 731 mmHg 63%
Mehr zeigen

Wir brauchen deine Erlaubnis

Meteoprog und unser Service Anbieter werden persönliche Daten aufbewahren, so wie Cookies, Geräte Bezeichnung oder ähnliche Technologien von deinem Gerät und Prozess, so wie Persönliche Daten Inhalte und Werbungen, genauso wie social Media und den Verkehr zu analysieren.

  • Aufbewahrung und/oder Zugang zu deiner Geräte Informationen.

    Cookies, Geräte Bezeichnung oder andere Informationen, können aufbewahrt oder Zugang zu deinem Gerät erhalten, für den Grund, der oben angegeben wird.

  • Personalisierte Werbung und Inhalte, Messungen, Einblick in das Publikum und Produkt Entwicklung.

    Werbungen und Inhalte können personalisiert werden, basierend auf ein Profil. Mehr Daten können besser personalisierte Werbungen und Inhalte hinzufügen. Werbung und Inhalte können gezeigt und gemessen werden. Einblicke über das Publikum, welche die Werbung gesehen haben und den Inhalt, können abgeleitet werden. So wie Daten können genutzt werden, um es zu verbessern oder die Benutzer Erfahrung zu verbessern das System und die Software.

Wenn du “Ich stimme zu” klickst, erlaubst du uns, die Cookies zu benutzen die Geräte Bezeichnung, den Web oder ähnliche Technologien zu benutzen. Deine Settings, können in deinem Gerät bei deinem Browser geändert werden.

Für den bestimmten Zweck, berechtigten Interessen beruhen darauf, mehr als auf den Inhalt. Du kannst mehr darüber in unseren Privaten und Cookie Politik lesen.